EST,Max TemperatureF,Mean TemperatureF,Min TemperatureF,Max Dew PointF,MeanDew PointF,Min DewpointF,Max Humidity, Mean Humidity, Min Humidity, Max Sea Level PressureIn, Mean Sea Level PressureIn, Min Sea Level PressureIn, Max VisibilityMiles, Mean VisibilityMiles, Min VisibilityMiles, Max Wind SpeedMPH, Mean Wind SpeedMPH, Max Gust SpeedMPH,PrecipitationIn, CloudCover, Events, WindDirDegrees
2013-12-1,53,46,39,36,31,26,65,57,48,30.17,30.07,29.96,10,10,10,13,8,17,0.00,7,,206
2013-12-2,52,45,38,39,36,34,85,72,59,29.94,29.85,29.78,10,9,7,9,3,9,0.00,7,,86
2013-12-3,53,45,36,46,42,36,93,82,71,29.87,29.82,29.79,8,6,1,13,5,16,0.00,6,,133
2013-12-4,63,55,46,57,52,45,100,89,78,29.87,29.80,29.71,10,6,3,16,9,21,T,7,Rain,158
2013-12-5,66,49,32,63,45,28,100,87,74,30.17,29.94,29.77,10,6,2,23,11,28,0.83,8,Rain,303
2013-12-6,32,30,27,30,27,24,100,93,85,30.40,30.22,30.13,8,3,0,20,10,26,0.78,8,Fog-Rain-Snow,356
2013-12-7,27,23,19,25,18,14,92,78,63,30.61,30.53,30.39,10,8,5,16,9,20,0.00,5,,2
2013-12-8,33,27,21,32,22,15,100,89,77,30.52,30.24,30.00,10,4,0,16,10,20,0.08,8,Fog-Snow,81
2013-12-9,33,29,24,32,26,17,96,86,75,30.24,30.14,30.01,10,8,3,18,8,22,T,8,,249
2013-12-10,28,23,17,19,16,11,92,78,63,30.38,30.22,30.14,10,6,0,20,8,25,0.11,5,Fog-Snow,268
2013-12-11,34,22,10,23,16,9,96,79,61,30.52,30.40,30.30,10,8,4,22,10,26,T,4,Fog-Snow,256
2013-12-12,24,14,3,9,5,-1,91,65,39,30.58,30.50,30.37,10,9,5,13,7,17,0.00,3,,246
2013-12-13,38,28,17,30,18,9,82,65,47,30.36,30.25,30.14,10,9,2,13,7,20,T,5,Snow,197
2013-12-14,39,36,32,38,34,30,100,95,89,30.12,29.88,29.70,10,5,0,18,9,25,0.48,8,Fog-Rain-Snow,167
2013-12-15,32,30,27,29,23,19,92,81,69,30.14,30.04,29.91,10,8,4,22,12,25,0.00,8,,263
2013-12-16,36,32,27,32,28,23,100,88,75,30.13,30.08,30.01,7,4,2,12,5,14,0.05,7,Snow,194
2013-12-17,36,32,28,32,26,23,96,84,72,30.19,30.07,29.99,10,7,4,22,9,28,0.00,7,,265
2013-12-18,38,31,24,24,19,15,92,66,40,30.29,30.20,30.07,10,9,6,18,9,24,0.00,1,,234
2013-12-19,55,46,36,41,30,19,68,58,48,30.10,30.05,29.97,10,10,10,18,10,24,0.00,6,,196
2013-12-20,61,56,51,57,48,35,93,70,47,29.96,29.90,29.83,10,10,8,22,14,31,0.01,8,Rain,199
2013-12-21,68,64,59,63,60,57,100,91,81,29.82,29.70,29.46,10,6,1,33,15,46,1.86,8,Rain-Thunderstorm,190
2013-12-22,62,50,38,61,48,35,97,84,71,30.05,29.80,29.58,10,9,4,30,13,39,0.42,7,Rain,227
2013-12-23,39,32,25,36,25,17,92,78,64,30.40,30.28,30.07,10,10,6,18,11,24,0.02,8,Rain-Snow,292
2013-12-24,26,20,14,19,11,7,88,73,57,30.57,30.49,30.36,10,8,2,21,7,26,T,5,Snow,297
2013-12-25,35,27,18,20,15,10,73,57,41,30.48,30.36,30.21,10,10,10,16,9,20,T,7,Snow,181
2013-12-26,41,34,27,26,22,19,78,60,41,30.38,30.31,30.20,10,10,10,23,9,28,0.00,4,,245
2013-12-27,49,39,28,28,25,22,75,60,45,30.43,30.36,30.30,10,10,8,13,7,17,0.00,0,,209
2013-12-28,51,42,33,30,28,26,75,58,41,30.29,30.20,30.03,10,10,10,14,8,18,0.00,5,,203
2013-12-29,44,38,32,39,36,28,100,77,53,30.04,29.91,29.82,10,6,1,21,8,26,0.29,8,Rain-Snow,246
2013-12-30,32,27,21,30,21,15,85,77,68,30.26,30.17,30.03,10,9,2,18,8,22,T,8,Snow,296
2013-12-31,34,28,21,20,16,14,77,62,47,30.39,30.29,30.20,10,10,10,23,9,28,T,5,Snow,234